[[{"header":{"parameterUnit":"m.s-1","parameterCategory":1,"la1":30.2991,"la2":30.254,"lo1":-89.0895,"lo2":-89.0444,"dy":0.0017,"dx":0.0017,"nx":28,"ny":28,"refTime":"2025-02-12T03:00:00:Z","depth":0,"parameterNumber":2,"parameterNumberName":"U-component_of_WINDS"},"data":[0,0,0,0,0,0,0,0,0,0,0,0,0,0,0,0,0,0,0,0,0,0,0,0,0,0,0,0,0,0,0,0,0,0,0,0,0,0,0,0,0,0,0,0,0,0,0,0,0,0,0,0,0,0,0,0,0,0,-1.0947,-1.0949,0,-1.1072,-1.1074,-1.1075,-1.1146,-1.1146,-1.1146,-1.1146,-1.1269,-1.1272,-1.1275,0,0,0,0,0,0,0,0,0,0,0,0,0,-1.0763,-1.0766,-1.0947,-1.0949,-1.095,-1.1072,-1.1074,-1.1076,-1.1146,-1.1146,-1.1146,-1.1147,-1.1268,-1.1272,-1.1276,0,0,0,0,0,0,0,0,0,0,0,0,0,-1.0861,-1.0767,-1.0947,-1.1,-1.1006,-1.1072,-1.1074,-1.1076,-1.1146,-1.1146,-1.1146,-1.1147,-1.1267,-1.1272,-1.1276,-1.1297,0,0,-1.129,-1.1292,0,0,0,0,0,0,0,0,-1.0855,-1.0868,-1.0991,-1.0996,-1.1003,-1.1094,-1.1054,-1.115,-1.1146,-1.1092,-1.1146,-1.1147,-1.121,-1.122,-1.1242,-1.1303,-1.1308,-1.1291,-1.1293,-1.1295,-1.1297,0,0,0,0,0,0,0,-1.0849,-1.0863,-1.0997,-1.0992,-1.1,-1.1016,-1.103,-1.1073,-1.1148,-1.1097,-1.1103,-1.1117,-1.1214,-1.1238,-1.1246,-1.131,-1.129,-1.1295,-1.1297,-1.1299,-1.1393,-1.1393,0,0,0,0,0,0,-1.0834,-1.0857,-1.0993,-1.1,-1.0929,-1.1019,-1.1035,-1.1064,-1.1147,-1.1161,-1.1116,-1.112,-1.123,-1.124,-1.125,-1.128,-1.1295,-1.13,-1.1302,-1.1393,-1.1393,-1.1393,0,0,0,0,0,0,-1.083,-1.0846,-1.0987,-1.093,-1.0949,-1.1022,-1.1054,-1.1067,-1.1091,-1.1162,-1.1175,-1.1127,-1.123,-1.1244,-1.1285,-1.1285,-1.1302,-1.1306,-1.1394,-1.1393,-1.1393,-1.134,0,0,0,0,0,0,-1.0824,-1.0844,-1.0854,-1.093,-1.0952,-1.1022,-1.1054,-1.1069,-1.1099,-1.1104,-1.1176,-1.1188,-1.1232,-1.1278,-1.129,-1.1292,-1.1309,-1.1394,-1.1393,-1.1393,-1.1342,-1.1337,-1.1334,0,0,0,0,0,-1.0818,-1.0833,-1.0854,-1.087,-1.0966,-1.1022,-1.1034,-1.1086,-1.1099,-1.1108,-1.1154,-1.1185,-1.1283,-1.1282,-1.1295,-1.1299,-1.1394,-1.1394,-1.1393,-1.1343,-1.1338,-1.1334,0,0,0,0,0,0,-1.0753,-1.0844,-1.0868,-1.0909,-1.0957,-1.1034,-1.1048,-1.1079,-1.1124,-1.1127,-1.1187,-1.1203,-1.1238,-1.1273,-1.1269,-1.1323,-1.1342,-1.1344,-1.1299,-1.1295,-1.1291,-1.1282,-1.1313,0,0,0,0,0,-1.0744,-1.0783,-1.0859,-1.0887,-1.0911,-1.0975,-1.1001,-1.1036,-1.1088,-1.1109,-1.1158,-1.1205,-1.1247,-1.1273,-1.1315,-1.1347,-1.1363,-1.1356,-1.1352,-1.1348,-1.1349,-1.1368,-1.1366,-1.1391,-1.1391,-1.1391,0,0,-1.0724,-1.0779,-1.0799,-1.0876,-1.0918,-1.0955,-1.0991,-1.103,-1.1057,-1.1114,-1.1157,-1.1194,-1.1251,-1.1287,-1.1306,-1.1317,-1.1346,-1.1348,-1.1344,-1.1347,-1.1367,-1.1365,-1.1363,-1.1391,-1.1391,-1.1391,0,0,-1.0709,-1.0754,-1.0783,-1.0824,-1.0887,-1.093,-1.0936,-1.1008,-1.1036,-1.108,-1.1123,-1.1156,-1.1226,-1.1265,-1.1294,-1.1292,-1.1322,-1.1304,-1.1283,-1.1301,-1.1299,-1.1297,-1.1296,-1.1295,-1.1305,-1.1304,-1.1304,0,-1.0676,-1.0736,-1.0793,-1.0829,-1.086,-1.0915,-1.0943,-1.098,-1.1053,-1.1073,-1.1085,-1.1174,-1.1216,-1.1263,-1.1262,-1.1284,-1.1292,-1.1296,-1.1295,-1.1294,-1.1293,-1.1293,-1.1292,-1.1302,-1.1302,-1.1302,-1.1303,0,-1.0693,-1.0734,-1.0749,-1.082,-1.0853,-1.0885,-1.0944,-1.0971,-1.1003,-1.1044,-1.1087,-1.114,-1.1193,-1.1207,-1.1238,-1.1257,-1.1262,-1.1284,-1.1304,-1.1287,-1.1288,-1.1288,-1.1298,-1.1299,-1.13,-1.13,0,0,-1.0641,-1.0742,-1.0747,-1.078,-1.0853,-1.0885,-1.0918,-1.0972,-1.0994,-1.1041,-1.107,-1.1128,-1.1149,-1.1181,-1.1217,-1.1233,-1.1227,-1.1252,-1.1255,-1.1246,-1.125,-1.1234,-1.1233,-1.1248,-1.1248,-1.1248,-1.1246,0,-1.0635,-1.07,-1.0752,-1.0796,-1.0834,-1.0886,-1.0915,-1.0962,-1.1,-1.1036,-1.1078,-1.1118,-1.1142,-1.1162,-1.118,-1.1224,-1.1229,-1.1225,-1.1274,-1.1275,-1.1258,-1.1233,-1.1216,-1.1212,-1.1246,-1.1246,-1.1246,0,-1.0638,-1.0686,-1.0735,-1.0804,-1.0822,-1.0847,-1.0901,-1.0935,-1.0989,-1.1016,-1.1052,-1.109,-1.1125,-1.1142,-1.1191,-1.1188,-1.121,-1.1235,-1.1236,-1.1242,-1.1259,-1.1239,-1.1211,-1.121,-1.1247,-1.1247,-1.1247,0,-1.0595,-1.0671,-1.071,-1.0737,-1.0818,-1.0835,-1.0869,-1.0924,-1.0953,-1.0999,-1.1018,-1.1066,-1.1093,-1.1129,-1.1178,-1.1185,-1.1222,-1.1242,-1.1244,-1.1242,-1.1249,-1.1248,-1.1225,-1.1264,-1.1264,-1.1264,-1.1264,0,-1.0584,-1.0611,-1.0692,-1.0716,-1.0748,-1.0806,-1.0835,-1.0874,-1.0922,-1.0953,-1.1,-1.1027,-1.1091,-1.1126,-1.1164,-1.1199,-1.121,-1.1232,-1.1242,-1.1228,-1.1225,-1.1243,-1.1245,-1.1264,-1.1264,-1.1264,-1.1264,0,-1.0541,-1.0596,-1.0642,-1.0716,-1.0735,-1.0755,-1.0818,-1.0842,-1.0883,-1.0922,-1.0934,-1.0998,-1.1041,-1.1094,-1.1154,-1.1179,-1.121,-1.1225,-1.1192,-1.1198,-1.1197,-1.1196,-1.1184,-1.1185,-1.1223,-1.1222,-1.1222,0,-1.053,-1.0553,-1.063,-1.0655,-1.0688,-1.0728,-1.0758,-1.0815,-1.0844,-1.0907,-1.0923,-1.097,-1.1011,-1.1078,-1.1128,-1.1174,-1.119,-1.1183,-1.1198,-1.1183,-1.119,-1.1188,-1.119,-1.1179,-1.1178,-1.1178,-1.1178,0,-1.0505,-1.0532,-1.0574,-1.0626,-1.0661,-1.0704,-1.0749,-1.0766,-1.0832,-1.0862,-1.0908,-1.094,-1.1002,-1.1047,-1.11,-1.1133,-1.1166,-1.1173,-1.1175,-1.1161,-1.1141,-1.1152,-1.1182,-1.1173,-1.1173,-1.1173,-1.1174,-1.1174,-1.0479,-1.0501,-1.0558,-1.0604,-1.0644,-1.0685,-1.0711,-1.0756,-1.0796,-1.0852,-1.0882,-1.0927,-1.0979,-1.1053,-1.1085,-1.112,-1.1131,-1.1135,-1.1136,-1.1136,-1.1132,-1.1136,-1.1129,-1.113,-1.113,-1.113,-1.113,0,-1.0456,-1.0495,-1.0537,-1.0599,-1.0634,-1.0663,-1.0714,-1.0741,-1.0781,-1.0827,-1.0867,-1.0919,-1.0964,-1.1018,-1.1065,-1.1083,-1.1099,-1.1093,-1.1092,-1.1099,-1.1119,-1.1112,-1.1079,-1.1079,-1.1079,-1.1079,-1.1079,-1.1079,-1.0448,-1.0488,-1.0521,-1.058,-1.0619,-1.0664,-1.0691,-1.0728,-1.0766,-1.0822,-1.086,-1.0896,-1.0945,-1.0996,-1.1038,-1.1053,-1.1068,-1.1058,-1.1076,-1.1094,-1.1098,-1.1102,-1.1096,-1.106,-1.106,-1.1054,-1.1054,-1.1054]},{"header":{"parameterUnit":"m.s-1","parameterCategory":1,"la1":30.2991,"la2":30.254,"lo1":-89.0895,"lo2":-89.0444,"dy":0.0017,"dx":0.0017,"nx":28,"ny":28,"refTime":"2025-02-12T03:00:00:Z","depth":0,"parameterNumber":3,"parameterNumberName":"V-component_of_WINDS"},"data":[0,0,0,0,0,0,0,0,0,0,0,0,0,0,0,0,0,0,0,0,0,0,0,0,0,0,0,0,0,0,0,0,0,0,0,0,0,0,0,0,0,0,0,0,0,0,0,0,0,0,0,0,0,0,0,0,0,0,7.5592,7.5595,0,7.5899,7.5903,7.5906,7.598,7.5978,7.5976,7.5974,7.6291,7.6301,7.6311,0,0,0,0,0,0,0,0,0,0,0,0,0,7.5072,7.5081,7.5591,7.5595,7.5599,7.5899,7.5903,7.5907,7.598,7.5978,7.5975,7.5973,7.6287,7.6299,7.6312,0,0,0,0,0,0,0,0,0,0,0,0,0,7.533,7.5084,7.5591,7.5672,7.5682,7.5898,7.5903,7.5908,7.5981,7.5978,7.5975,7.5972,7.6283,7.6298,7.6314,7.6471,0,0,7.6361,7.6368,0,0,0,0,0,0,0,0,7.5316,7.5349,7.5656,7.5666,7.5678,7.5898,7.5836,7.6097,7.5982,7.5867,7.5974,7.597,7.6163,7.6188,7.6252,7.6486,7.65,7.6362,7.6372,7.6378,7.6383,0,0,0,0,0,0,0,7.5298,7.5337,7.5713,7.566,7.5674,7.5694,7.5728,7.5886,7.6029,7.5877,7.5883,7.5919,7.6168,7.6237,7.626,7.6504,7.6362,7.6376,7.6385,7.6391,7.689,7.6893,0,0,0,0,0,0,7.5265,7.5321,7.5704,7.5723,7.5486,7.5706,7.5743,7.5831,7.6027,7.6054,7.5921,7.5921,7.6212,7.6242,7.6272,7.6474,7.6378,7.6393,7.6402,7.6886,7.6891,7.6895,0,0,0,0,0,0,7.5254,7.5299,7.5691,7.5524,7.5575,7.5718,7.5816,7.5838,7.5908,7.606,7.6086,7.5965,7.6211,7.625,7.6423,7.6486,7.64,7.6414,7.6881,7.6887,7.6893,7.6876,0,0,0,0,0,0,7.5239,7.5294,7.5354,7.5525,7.5584,7.5835,7.582,7.5847,7.5934,7.5937,7.6108,7.6134,7.6212,7.6399,7.6438,7.6506,7.6426,7.6876,7.6884,7.6891,7.6872,7.6881,7.6888,0,0,0,0,0,7.522,7.5336,7.5356,7.5402,7.5662,7.5838,7.5872,7.5959,7.5939,7.6002,7.6101,7.6128,7.6472,7.6416,7.646,7.6534,7.6873,7.6882,7.689,7.6868,7.6879,7.6888,0,0,0,0,0,0,7.5168,7.536,7.5384,7.5559,7.5682,7.585,7.5932,7.5967,7.6098,7.6096,7.6198,7.6236,7.6403,7.6486,7.642,7.67,7.6672,7.669,7.664,7.6652,7.666,7.6638,7.6439,0,0,0,0,0,7.5177,7.5304,7.5464,7.5603,7.5664,7.5787,7.5867,7.5924,7.6055,7.6108,7.6219,7.6346,7.6484,7.6572,7.6706,7.6884,7.6925,7.6957,7.6965,7.6971,7.6986,7.7092,7.7109,7.6924,7.6924,7.6924,0,0,7.5197,7.5317,7.539,7.5596,7.5698,7.5829,7.583,7.5967,7.6067,7.6129,7.63,7.6386,7.6536,7.6712,7.6796,7.6786,7.7047,7.6982,7.6986,7.6998,7.7102,7.712,7.7135,7.693,7.6929,7.6928,0,0,7.53,7.5402,7.5532,7.5635,7.579,7.5872,7.5903,7.6067,7.6128,7.6301,7.6352,7.6472,7.6704,7.6811,7.6895,7.7045,7.7077,7.7085,7.713,7.7231,7.7246,7.7259,7.7317,7.7336,7.71,7.71,7.71,0,7.5305,7.5504,7.5593,7.5731,7.5821,7.5885,7.6018,7.6114,7.6305,7.6367,7.6353,7.6651,7.6756,7.6961,7.6998,7.7063,7.7104,7.7067,7.7236,7.7251,7.7265,7.7321,7.7342,7.71,7.71,7.71,7.71,0,7.5505,7.5642,7.5728,7.5912,7.6013,7.6147,7.6259,7.6351,7.64,7.6484,7.6662,7.6791,7.6955,7.7007,7.7055,7.7222,7.7211,7.7215,7.719,7.7281,7.7336,7.7358,7.71,7.71,7.71,7.71,0,0,7.5583,7.5818,7.5848,7.5935,7.6113,7.6222,7.6361,7.6522,7.66,7.673,7.6852,7.705,7.7057,7.7153,7.7214,7.7303,7.7419,7.7297,7.7303,7.7319,7.7615,7.7613,7.7636,7.7441,7.7445,7.7449,7.7604,0,7.5711,7.5961,7.6048,7.6255,7.6386,7.645,7.6572,7.6696,7.6779,7.6904,7.6997,7.7137,7.7133,7.7193,7.7283,7.7385,7.748,7.7375,7.7558,7.7564,7.7521,7.7664,7.7661,7.7801,7.7625,7.7629,7.7632,0,7.5893,7.6028,7.6249,7.6415,7.6473,7.6581,7.6739,7.6855,7.6999,7.7054,7.7163,7.7219,7.7371,7.7335,7.7548,7.7474,7.7555,7.7617,7.7624,7.7647,7.7604,7.7693,7.7847,7.7869,7.7665,7.7663,7.766,0,7.5933,7.6169,7.6334,7.6405,7.6602,7.6677,7.6763,7.6903,7.6996,7.7134,7.7197,7.735,7.7434,7.7553,7.7651,7.7615,7.7856,7.7827,7.7909,7.7907,7.7958,7.7954,7.813,7.8004,7.8004,7.8004,7.8003,0,7.6068,7.6202,7.6355,7.6456,7.6609,7.6709,7.6858,7.6948,7.7073,7.7195,7.726,7.7373,7.7493,7.7623,7.77,7.7867,7.7904,7.7955,7.7975,7.7951,7.7945,7.8007,7.8001,7.8009,7.8008,7.8007,7.8006,0,7.6138,7.6246,7.643,7.6602,7.6649,7.6755,7.6904,7.7006,7.7094,7.7248,7.7289,7.7427,7.7584,7.7693,7.7894,7.7946,7.8128,7.8144,7.8079,7.809,7.8166,7.8159,7.8391,7.8428,7.8274,7.8275,7.8276,0,7.6219,7.6324,7.6509,7.6595,7.6681,7.6819,7.6915,7.7019,7.7117,7.7291,7.7374,7.7535,7.767,7.7918,7.8038,7.8193,7.8216,7.8287,7.824,7.8215,7.8222,7.8216,7.8229,7.8294,7.8295,7.8296,7.8297,0,7.6352,7.6401,7.6537,7.6693,7.6806,7.6934,7.7062,7.713,7.7257,7.7364,7.7526,7.7631,7.7838,7.7999,7.8167,7.8257,7.8301,7.8311,7.8339,7.8317,7.8277,7.8304,7.8103,7.8305,7.8305,7.8304,7.8304,7.8303,7.6433,7.6531,7.6678,7.6828,7.6936,7.7056,7.7162,7.7264,7.7401,7.7578,7.7631,7.7801,7.7947,7.8176,7.827,7.8406,7.8401,7.844,7.845,7.8459,7.8461,7.8253,7.8436,7.8436,7.8436,7.8436,7.8436,0,7.6573,7.6671,7.6809,7.6988,7.7107,7.7137,7.7282,7.738,7.7529,7.7661,7.7793,7.7982,7.814,7.8272,7.8437,7.852,7.8544,7.856,7.8556,7.8578,7.8454,7.8416,7.8538,7.8538,7.8538,7.8538,7.8538,7.8538,7.666,7.6829,7.6896,7.7121,7.7219,7.7386,7.7467,7.7579,7.7686,7.7893,7.8025,7.8111,7.8245,7.842,7.8568,7.8603,7.8662,7.8674,7.8715,7.8597,7.8586,7.8574,7.8539,7.8685,7.8686,7.8828,7.8829,7.883]}]]